This demonstration page uses our WeatherBlox Daily Observations layout. Learn more.

39.29038, -76.61219

Hourly Observations for January 20, 2019

Temp ( °F °C ) Dew Point ( °F °C ) Humidity (%) Winds ( mph kmh ) Pressure ( in mb ) Visibility ( mi km ) Precip ( " mm )
12:54 am 00:54 undefined 41 5 38 3.3 89 89 undefined N/A 29.65 1004 N/A 0.14 3.556
1:54 am 01:54 undefined 41 5 39 3.9 93 93 undefined N/A 29.56 1001 N/A 0.06 1.524
2:54 am 02:54 undefined 42 5.6 40 4.4 92 92 undefined N/A 29.47 998 N/A 0.08 2.032
3:54 am 03:54 undefined 46 7.8 44 6.7 93 93 undefined N/A 29.44 997 N/A 0.01 0.254
4:54 am 04:54 undefined 47 8.3 46 7.8 97 97 undefined N/A 29.35 994 N/A 0.01 0.254
5:54 am 05:54 undefined 46 7.8 45 7.2 96 96 undefined N/A 29.32 993 N/A 0 0
6:54 am 06:54 undefined 47 8.3 45 7.2 93 93 undefined N/A 29.29 992 N/A 0 0
7:54 am 07:54 undefined 47 8.3 43 6.1 86 86 undefined N/A 29.29 992 N/A 0 0
8:54 am 08:54 undefined 46 7.8 41 5 83 83 undefined N/A 29.32 993 N/A 0.04 1.016
9:54 am 09:54 undefined 43 6.1 36 2.2 76 76 undefined N/A 29.35 994 N/A 0 0
10:54 am 10:54 undefined 44 6.7 34 1.1 68 68 undefined N/A 29.41 996 N/A 0 0
11:54 am 11:54 undefined 39 3.9 28 -2.2 65 65 undefined N/A 29.44 997 N/A 0 0
12:54 pm 12:54 undefined 37 2.8 23 -5 57 57 undefined N/A 29.5 999 N/A 0 0
1:54 pm 13:54 undefined 36 2.2 20 -6.7 52 52 undefined N/A 29.53 1000 N/A 0 0
2:54 pm 14:54 undefined 34 1.1 17 -8.3 50 50 undefined N/A 29.56 1001 N/A 0 0
3:54 pm 15:54 undefined 32 0 14 -10 47 47 undefined N/A 29.62 1003 N/A 0 0
4:54 pm 16:54 undefined 29 -1.7 10 -12.2 45 45 undefined N/A 29.68 1005 N/A 0 0
5:54 pm 17:54 undefined 28 -2.2 9 -12.8 44 44 undefined N/A 29.8 1009 N/A 0 0
6:54 pm 18:54 undefined 26 -3.3 7 -13.9 44 44 undefined N/A 29.83 1010 N/A 0 0
7:54 pm 19:54 undefined 24 -4.4 4 -15.6 42 42 undefined N/A 29.83 1010 N/A 0 0
8:54 pm 20:54 undefined 22 -5.6 2 -16.7 42 42 undefined N/A 29.85 1011 N/A 0 0
9:54 pm 21:54 undefined 21 -6.1 -1 -18.3 38 38 undefined N/A 29.91 1013 N/A 0 0
10:54 pm 22:54 undefined 19 -7.2 -4 -20 36 36 undefined N/A 29.94 1014 N/A 0 0
11:54 pm 23:54 undefined 17 -8.3 -5 -20.6 37 37 undefined N/A 30 1016 N/A 0 0

Powered by AerisWeather